Preview of NWS' New Version of Forecast
This preview is not operational and should not be used for support decisions.

Regional Weather Roundup (RWR)

Issued by National Weather Service (NWS)

                            
000
ASUS45 KBOU 170910
RWRCO 

WEATHER ROUNDUP FOR COLORADO
NATIONAL WEATHER SERVICE DENVER/BOULDER CO
200 AM MST SUN FEB 17 2019

NOTE: "FAIR" INDICATES FEW OR NO CLOUDS BELOW 12000 FEET WITH NO
SIGNIFICANT WEATHER AND/OR OBSTRUCTIONS TO VISIBILITY.

COZ001>005-013-030-031-171000-
...NORTHWEST COLORADO...
  
CITY           SKY/WX    TMP DP  RH WIND       PRES   REMARKS
CRAIG          MOCLDY     7   3  84 CALM      29.80S                  
HAYDEN         FAIR      11   6  81 E7        29.79S WCI   0          
MEEKER         FAIR      11   6  81 E5        29.79S WCI   3          
RANGELY        FAIR       9   6  86 E5        29.84R WCI   1          
RABBIT EARS PA CLOUDY   N/A N/A N/A W9        29.62F                  
STEAMBOAT SPGS MOCLDY     8   6  89 CALM      29.78R                  
WALDEN         FAIR       5  -4  66 CALM      29.71S                  
$$

COZ006>008-011-171000-
...WEST CENTRAL VALLEYS...
  
CITY           SKY/WX    TMP DP  RH WIND       PRES   REMARKS
GRAND JUNCTION FAIR      25  16  68 E9        29.83S WCI  15          
MONTROSE       FAIR      20   9  62 SE12      29.86S WCI   8          
EAGLE          FAIR       0  -4  83 E7        29.85S WCI -13          
RIFLE          FAIR      17   9  70 SW6       29.84S WCI   9          
DELTA          FAIR      26  13  59 E8        29.86S WCI  17          
NUCLA          FAIR      21  10  63 E9        29.85F WCI  11          
$$

COZ017>023-064>068-171000-
...SOUTHWEST COLORADO...
  
CITY           SKY/WX    TMP DP  RH WIND       PRES   REMARKS
DURANGO        FAIR       4   1  88 CALM      29.83R                  
CORTEZ         FAIR      18  10  71 N3        29.84S                  
PAGOSA SPRINGS NOT AVBL                                               
TELLURIDE      CLOUDY     7   0  72 S6        29.78S WCI  -3          
WOLF CREEK PAS MOCLDY    -4  -9  77 S8        29.72S WCI -19          
$$

COZ009-010-012-014-032>034-037-058>063-171000-
...CENTRAL COLORADO...
  
CITY           SKY/WX    TMP DP  RH WIND       PRES   REMARKS
ASPEN          CLOUDY     6  -1  73 SW9       29.76S WCI  -8          
BUENA VISTA    FAIR       8  -2  64 NW9       29.76S WCI  -6          
COPPER MTN     CLOUDY     1  -6  71 W14G20    29.59S WCI -17          
BERTHOUD PASS  CLOUDY    -6 -17  59 NW20G25   29.54S WCI -29          
COTTONWOOD PAS FAIR      10  -4  52 W16G24    29.67S WCI  -7          
GUNNISON       FLURRIES  -9 -12  87 CALM      29.84R                  
GRANBY         CLOUDY     5   1  81 SE5       29.73S WCI  -4          
KREMMLING      MOCLDY     5   1  85 CALM      29.77S                  
LEADVILLE      CLOUDY     1  -4  79 CALM      29.67S                  
MONARCH PASS   MOCLDY    -2  -8  78 MISG      29.72F                  
SALIDA         FAIR      19  -2  39 W5        29.84S WCI  12          
SUNLIGHT         N/A    N/A N/A N/A MISG      29.71F                  
WILKERSON PASS FAIR       1  -9  60 NW9       29.62S WCI -14          
$$

COZ069>075-171000-
...SAN LUIS VALLEY/SANGRE DE CRISTO MOUNTAINS...
  
CITY           SKY/WX    TMP DP  RH WIND       PRES   REMARKS
ALAMOSA        FAIR       1  -4  79 W7        29.80R WCI -12          
DEL NORTE      FAIR       7  -6  57 NW8       29.79S WCI  -6          
LA VETA PASS   NOT AVBL                                               
SAGUACHE       FAIR       9   0  66 CALM      29.78S                  
$$

COZ035-036-038>040-171000-
...NORTHERN COLORADO FRONT RANGE...
  
CITY           SKY/WX    TMP DP  RH WIND       PRES   REMARKS
DENVER INTL AP FAIR      21   1  41 SW3       29.72S                  
AURORA         PTCLDY    21   1  41 W7        29.73S WCI  12          
FRONT RANGE AP NOT AVBL                                               
ERIE MUNI ARPT FAIR      22   1  39 S3        29.79S                  
BOULDER MUN AP FAIR      28   0  29 NE6       29.72S WCI  22          
CENTENNIAL     FAIR      18   2  49 CALM      29.73R                  
BROOMFIELD     FAIR      27   1  33 W15G24    29.72S WCI  15          
FORT COLLINS   FAIR      21   7  54 CALM      29.73S                  
LONGMONT       FAIR      26   0  32 CALM      29.75S                  
$$

COZ041-046-047-076>085-087-088-171000-
...PIKES PEAK/PALMER DIVIDE AND SOUTHERN FOOTHILLS...
  
CITY           SKY/WX    TMP DP  RH WIND       PRES   REMARKS
COLO. SPRINGS  FAIR      26  -4  27 NW18      29.72F WCI  13          
A. F. ACADEMY  FAIR      23  -5  28 NW12G20   29.71F WCI  11          
SCHRIEVER AFB  NOT AVBL                                               
CHEYENNE MTN   FAIR      20  -6  31 CALM      29.65S                  
ELLICOTT       NOT AVBL                                               
FALCON         FAIR      16  -4  41 NW7       29.71S WCI   6          
FORT CARSON    FAIR      19  -1  40 W5        29.72S WCI  12          
LIMON          FAIR      11   5  77 W3        29.74S                  
MONUMENT HILL  FAIR      12   0  57 W7        29.72S WCI   2          
CANON CITY     NOT AVBL                                               
WALSENBURG     NOT AVBL                                               
TRINIDAD       FAIR      15  12  88 W9        29.78R WCI   3          
$$

COZ042>045-048>051-090-091-171000-
...NORTHEAST COLORADO...
  
CITY           SKY/WX    TMP DP  RH WIND       PRES   REMARKS
GREELEY ARPT   NOT AVBL                                               
AKRON          FAIR      20  16  84 NW14      29.73R WCI   7          
BURLINGTON     FAIR      17  13  84 NW10      29.74S WCI   5          
WRAY           FAIR      19  18  93 N13       29.77R WCI   7          
YUMA           FAIR      16  12  86 W6        29.74S WCI   7          
STERLING       FAIR      14  12  92 W7        29.75S WCI   4          
HOLYOKE        MOCLDY    19  14  79 N14       29.77S WCI   6          
FORT MORGAN      N/A     18  14  86 N13       29.75S WCI   4          
$$

COZ086-089-092>099-171000-
...SOUTHEAST COLORADO...
  
CITY           SKY/WX    TMP DP  RH WIND       PRES   REMARKS
PUEBLO         FAIR      21   5  50 CALM      29.77R                  
LA JUNTA       FAIR      24  19  81 W15       29.78R WCI  11          
LAMAR          FAIR      23  18  81 W10       29.76S WCI  12          
SPRINGFIELD      N/A     18  15  88 W10       29.75F WCI   6          
$$